EST,Max TemperatureF,Mean TemperatureF,Min TemperatureF,Max Dew PointF,MeanDew PointF,Min DewpointF,Max Humidity, Mean Humidity, Min Humidity, Max Sea Level PressureIn, Mean Sea Level PressureIn, Min Sea Level PressureIn, Max VisibilityMiles, Mean VisibilityMiles, Min VisibilityMiles, Max Wind SpeedMPH, Mean Wind SpeedMPH, Max Gust SpeedMPH,PrecipitationIn, CloudCover, Events, WindDirDegrees
2013-2-1,26,16,5,23,3,-4,93,65,45,30.27,30.10,29.75,10,7,0,23,8,34,0.02,3,Snow,294
2013-2-2,24,12,1,21,9,-4,100,81,54,30.24,30.10,29.93,10,7,0,8,1,,0.05,5,Snow,233
2013-2-3,28,24,19,23,17,12,93,75,64,29.99,29.87,29.79,10,7,2,17,6,28,0.00,8,Snow,274
2013-2-4,33,25,17,28,15,9,87,69,55,30.04,29.95,29.87,10,10,5,12,6,21,0.00,5,Rain-Snow,255
2013-2-5,37,34,32,30,27,23,87,77,65,29.91,29.87,29.83,10,10,7,10,4,17,0.00,7,Rain,238
2013-2-6,37,30,24,28,23,19,86,70,52,30.26,30.12,29.92,10,10,10,13,4,24,0.00,4,,317
2013-2-7,33,28,23,28,25,19,87,81,70,30.27,30.19,30.04,10,9,7,8,4,,0.00,4,,67
2013-2-8,37,32,26,34,27,21,100,86,69,30.12,29.95,29.83,10,6,1,17,5,29,0.00,8,Rain-Snow,325
2013-2-9,35,27,19,21,12,9,80,56,33,30.32,30.24,30.12,10,10,3,14,6,18,0.00,1,Snow,305
2013-2-10,44,30,17,30,16,10,93,61,25,30.35,30.25,30.11,10,10,5,10,5,,0.05,3,Rain,71
2013-2-11,53,42,32,45,29,10,100,70,27,30.10,29.95,29.86,10,10,3,18,7,28,0.01,4,Rain,287
2013-2-12,46,39,32,21,16,9,64,45,23,30.09,30.00,29.90,10,10,10,15,8,24,0.00,0,,291
2013-2-13,35,32,28,30,25,19,100,78,52,29.91,29.74,29.58,10,8,1,10,4,16,0.12,8,Rain-Snow,2
2013-2-14,41,34,26,27,21,19,93,65,42,30.00,29.94,29.84,10,10,7,12,6,18,0.00,4,,259
2013-2-15,46,34,23,30,25,19,93,76,43,30.03,29.98,29.89,10,10,3,14,4,22,0.00,4,Snow,257
2013-2-16,28,22,17,23,14,7,86,67,43,29.97,29.89,29.84,10,9,2,12,6,18,0.00,6,Snow,321
2013-2-17,19,14,8,10,0,-4,79,54,38,30.15,30.02,29.88,10,9,2,14,9,24,0.00,4,Snow,299
2013-2-18,44,27,10,27,12,0,73,49,36,30.28,30.17,30.05,10,10,10,8,4,,0.04,0,Thunderstorm,203
2013-2-19,41,34,28,34,22,9,100,67,38,30.05,29.89,29.77,10,8,2,21,6,31,0.05,5,Rain-Snow,243
2013-2-20,26,22,19,10,8,5,63,54,43,30.13,30.04,29.94,10,10,10,18,11,25,0.00,2,,293
2013-2-21,35,24,12,16,10,5,79,57,33,30.20,30.15,30.10,10,10,10,10,6,,0.00,1,,277
2013-2-22,32,29,26,30,24,12,93,78,44,30.22,30.13,30.05,10,9,4,10,5,,0.06,8,Snow,61
2013-2-23,50,40,30,36,31,27,93,80,50,30.05,29.91,29.81,10,8,4,8,2,,0.00,4,,242
2013-2-24,41,32,23,30,20,12,81,58,31,30.06,29.95,29.83,10,10,10,18,6,24,0.00,2,,289
2013-2-25,39,28,17,18,15,12,86,61,36,30.14,30.08,30.04,10,10,7,7,2,,0.00,0,,88
2013-2-26,35,32,28,32,24,14,93,76,51,30.08,29.81,29.59,10,8,2,15,7,33,0.07,7,Rain,81
2013-2-27,35,32,30,34,29,25,100,83,65,29.72,29.68,29.58,10,9,1,15,5,20,0.00,8,Rain-Snow,251
2013-2-28,30,28,26,27,22,19,86,78,69,29.81,29.73,29.66,10,7,1,14,7,21,0.00,8,Snow,275